[[{"header":{"parameterUnit":"m.s-1","parameterCategory":1,"la1":30.2991,"la2":30.254,"lo1":-89.0895,"lo2":-89.0444,"dy":0.0017,"dx":0.0017,"nx":28,"ny":28,"refTime":"2025-11-21T03:00:00:Z","depth":0,"parameterNumber":2,"parameterNumberName":"U-component_of_WINDS"},"data":[0,0,0,0,0,0,0,0,0,0,0,0,0,0,0,0,0,0,0,0,0,0,0,0,0,0,0,0,0,0,0,0,0,0,0,0,0,0,0,0,0,0,0,0,0,0,0,0,0,0,0,0,0,0,0,0,0,0,-0.9833,-0.9833,0,-0.9854,-0.9855,-0.9855,-0.9871,-0.9871,-0.9872,-0.9872,-0.9894,-0.9895,-0.9895,0,0,0,0,0,0,0,0,0,0,0,0,0,-0.9805,-0.9805,-0.9833,-0.9833,-0.9833,-0.9854,-0.9855,-0.9855,-0.9871,-0.9871,-0.9872,-0.9872,-0.9894,-0.9895,-0.9895,0,0,0,0,0,0,0,0,0,0,0,0,0,-0.9821,-0.9805,-0.9832,-0.9844,-0.9845,-0.9854,-0.9855,-0.9855,-0.9871,-0.9872,-0.9872,-0.9872,-0.9894,-0.9895,-0.9895,-0.9895,0,0,-0.9898,-0.9898,0,0,0,0,0,0,0,0,-0.982,-0.9822,-0.9842,-0.9843,-0.9844,-0.986,-0.9853,-0.9869,-0.9871,-0.9861,-0.9872,-0.9872,-0.9883,-0.9885,-0.9888,-0.9896,-0.9897,-0.9898,-0.9898,-0.9898,-0.9899,0,0,0,0,0,0,0,-0.9819,-0.9821,-0.9841,-0.9842,-0.9844,-0.9848,-0.985,-0.9856,-0.9871,-0.9862,-0.9863,-0.9866,-0.9884,-0.9887,-0.9889,-0.9898,-0.9898,-0.9898,-0.9899,-0.9899,-0.9906,-0.9906,0,0,0,0,0,0,-0.9816,-0.982,-0.9841,-0.9842,-0.9832,-0.9848,-0.9851,-0.9855,-0.9871,-0.9873,-0.9866,-0.9866,-0.9886,-0.9888,-0.989,-0.989,-0.9898,-0.9899,-0.9899,-0.9906,-0.9906,-0.9906,0,0,0,0,0,0,-0.9815,-0.9818,-0.984,-0.9831,-0.9834,-0.9848,-0.9853,-0.9855,-0.9859,-0.9873,-0.9876,-0.9867,-0.9886,-0.9889,-0.9894,-0.9891,-0.9899,-0.99,-0.9907,-0.9906,-0.9906,-0.9891,0,0,0,0,0,0,-0.9814,-0.9817,-0.9817,-0.9831,-0.9835,-0.9843,-0.9853,-0.9856,-0.986,-0.9862,-0.9875,-0.9877,-0.9887,-0.9892,-0.9894,-0.9892,-0.9901,-0.9907,-0.9906,-0.9906,-0.9892,-0.989,-0.9889,0,0,0,0,0,-0.9813,-0.9812,-0.9817,-0.982,-0.9835,-0.9843,-0.9845,-0.9856,-0.986,-0.986,-0.9869,-0.9877,-0.9891,-0.9893,-0.9895,-0.9893,-0.9907,-0.9907,-0.9906,-0.9892,-0.989,-0.9889,0,0,0,0,0,0,-0.9798,-0.9814,-0.982,-0.9824,-0.9832,-0.9846,-0.9846,-0.9853,-0.9861,-0.9862,-0.9875,-0.9878,-0.9881,-0.9888,-0.9889,-0.9893,-0.99,-0.99,-0.9889,-0.9887,-0.9886,-0.9884,-0.9901,0,0,0,0,0,-0.9795,-0.98,-0.9814,-0.9816,-0.982,-0.9832,-0.9836,-0.9844,-0.9853,-0.9856,-0.9866,-0.9874,-0.988,-0.9884,-0.9891,-0.9893,-0.9895,-0.9892,-0.9891,-0.989,-0.9889,-0.989,-0.9888,-0.9904,-0.9904,-0.9904,0,0,-0.979,-0.9799,-0.9801,-0.9813,-0.9821,-0.9825,-0.9835,-0.984,-0.9843,-0.9857,-0.9862,-0.9869,-0.9879,-0.9882,-0.9884,-0.9888,-0.9885,-0.9889,-0.9888,-0.9888,-0.9889,-0.9888,-0.9886,-0.9904,-0.9904,-0.9904,0,0,-0.9781,-0.9789,-0.9791,-0.9798,-0.9808,-0.9817,-0.9817,-0.983,-0.9835,-0.984,-0.985,-0.9854,-0.9865,-0.9872,-0.9877,-0.987,-0.9877,-0.9872,-0.9864,-0.9864,-0.9863,-0.9862,-0.9859,-0.9858,-0.9871,-0.9871,-0.9871,0,-0.9772,-0.978,-0.9791,-0.9795,-0.98,-0.9812,-0.9814,-0.982,-0.9832,-0.9835,-0.9839,-0.9852,-0.986,-0.9865,-0.9863,-0.9867,-0.9867,-0.987,-0.9862,-0.9861,-0.9861,-0.9858,-0.9856,-0.9871,-0.9871,-0.9871,-0.9871,0,-0.9768,-0.9773,-0.9774,-0.9784,-0.9789,-0.9792,-0.9804,-0.9807,-0.9814,-0.9822,-0.9826,-0.9836,-0.9845,-0.9846,-0.9854,-0.9852,-0.9854,-0.986,-0.9867,-0.9858,-0.9855,-0.9855,-0.9869,-0.987,-0.987,-0.987,0,0,-0.9751,-0.9768,-0.9768,-0.9773,-0.9785,-0.9789,-0.9792,-0.98,-0.9802,-0.981,-0.9813,-0.9821,-0.9827,-0.9832,-0.984,-0.9841,-0.9834,-0.9847,-0.9847,-0.9843,-0.9832,-0.9826,-0.9825,-0.9839,-0.9839,-0.9839,-0.983,0,-0.9744,-0.975,-0.976,-0.9763,-0.9767,-0.9779,-0.9781,-0.9789,-0.9796,-0.9801,-0.9809,-0.9814,-0.9822,-0.9825,-0.9826,-0.9834,-0.9831,-0.9835,-0.9841,-0.9841,-0.9837,-0.9824,-0.9818,-0.981,-0.983,-0.9829,-0.9829,0,-0.9737,-0.9743,-0.9746,-0.9758,-0.976,-0.9762,-0.977,-0.9774,-0.9783,-0.9788,-0.9794,-0.9802,-0.9806,-0.9812,-0.9817,-0.9819,-0.9822,-0.9827,-0.9827,-0.9827,-0.9834,-0.9823,-0.9808,-0.9806,-0.9828,-0.9828,-0.9828,0,-0.9723,-0.9733,-0.9736,-0.974,-0.9753,-0.9754,-0.976,-0.9769,-0.9772,-0.9779,-0.9782,-0.9789,-0.9793,-0.9798,-0.9808,-0.9812,-0.9811,-0.9819,-0.9815,-0.9815,-0.9814,-0.9814,-0.9798,-0.9817,-0.9817,-0.9817,-0.9817,0,-0.9714,-0.9715,-0.9729,-0.9731,-0.9733,-0.9744,-0.9745,-0.9752,-0.976,-0.9763,-0.9774,-0.9776,-0.9789,-0.9794,-0.9801,-0.9804,-0.9806,-0.981,-0.9812,-0.9808,-0.9808,-0.981,-0.981,-0.9817,-0.9817,-0.9817,-0.9817,0,-0.9698,-0.9708,-0.9712,-0.9724,-0.9727,-0.9728,-0.9738,-0.974,-0.9747,-0.9751,-0.9753,-0.9764,-0.977,-0.978,-0.9789,-0.9794,-0.9794,-0.9798,-0.9791,-0.9792,-0.9787,-0.9787,-0.9772,-0.977,-0.9791,-0.9791,-0.9791,0,-0.9691,-0.9693,-0.9704,-0.9707,-0.9712,-0.9716,-0.972,-0.9731,-0.9735,-0.9744,-0.9745,-0.9751,-0.9756,-0.9764,-0.9774,-0.978,-0.9783,-0.9778,-0.9784,-0.9781,-0.9782,-0.9782,-0.9782,-0.9776,-0.9776,-0.9775,-0.9775,0,-0.9678,-0.9682,-0.9687,-0.9694,-0.9698,-0.9703,-0.971,-0.9711,-0.9724,-0.9727,-0.9732,-0.9737,-0.9745,-0.975,-0.9758,-0.9764,-0.9771,-0.9773,-0.9772,-0.9769,-0.9764,-0.9766,-0.9786,-0.9773,-0.9774,-0.9774,-0.9774,-0.9774,-0.9666,-0.9667,-0.9675,-0.968,-0.9686,-0.9691,-0.9693,-0.9701,-0.9706,-0.9713,-0.9719,-0.9724,-0.9732,-0.9743,-0.9748,-0.9751,-0.9755,-0.9754,-0.9754,-0.9753,-0.9752,-0.9764,-0.9753,-0.9753,-0.9753,-0.9753,-0.9753,0,-0.9652,-0.9658,-0.9662,-0.967,-0.9674,-0.9681,-0.9688,-0.969,-0.9694,-0.9701,-0.9706,-0.9711,-0.9717,-0.9726,-0.9732,-0.9733,-0.9737,-0.9734,-0.9734,-0.9735,-0.9748,-0.9748,-0.9731,-0.9731,-0.9731,-0.9731,-0.9731,-0.9731,-0.9645,-0.9647,-0.9653,-0.9657,-0.9663,-0.9667,-0.9671,-0.9675,-0.9681,-0.9686,-0.9691,-0.9697,-0.9705,-0.9711,-0.9716,-0.9719,-0.972,-0.9716,-0.972,-0.9732,-0.9734,-0.9736,-0.9736,-0.9717,-0.9717,-0.9706,-0.9706,-0.9706]},{"header":{"parameterUnit":"m.s-1","parameterCategory":1,"la1":30.2991,"la2":30.254,"lo1":-89.0895,"lo2":-89.0444,"dy":0.0017,"dx":0.0017,"nx":28,"ny":28,"refTime":"2025-11-21T03:00:00:Z","depth":0,"parameterNumber":3,"parameterNumberName":"V-component_of_WINDS"},"data":[0,0,0,0,0,0,0,0,0,0,0,0,0,0,0,0,0,0,0,0,0,0,0,0,0,0,0,0,0,0,0,0,0,0,0,0,0,0,0,0,0,0,0,0,0,0,0,0,0,0,0,0,0,0,0,0,0,0,4.113,4.113,0,4.1201,4.1202,4.1203,4.1221,4.1221,4.122,4.122,4.1292,4.1294,4.1296,0,0,0,0,0,0,0,0,0,0,0,0,0,4.1009,4.1011,4.113,4.1131,4.1131,4.1201,4.1202,4.1203,4.1221,4.1221,4.122,4.122,4.1291,4.1294,4.1296,0,0,0,0,0,0,0,0,0,0,0,0,0,4.1069,4.1011,4.1129,4.1149,4.1152,4.1201,4.1202,4.1203,4.1222,4.1221,4.122,4.122,4.129,4.1293,4.1297,4.1331,0,0,4.1307,4.1309,0,0,0,0,0,0,0,0,4.1065,4.1073,4.1145,4.1148,4.1151,4.1202,4.1186,4.1246,4.1222,4.1195,4.122,4.1219,4.1262,4.1268,4.1283,4.1335,4.1338,4.1308,4.131,4.1311,4.1312,0,0,0,0,0,0,0,4.1061,4.107,4.1158,4.1146,4.115,4.1154,4.1162,4.1197,4.1231,4.1197,4.1199,4.1207,4.1263,4.1279,4.1284,4.1339,4.1308,4.1311,4.1313,4.1314,4.1425,4.1426,0,0,0,0,0,0,4.1054,4.1067,4.1156,4.116,4.1106,4.1157,4.1166,4.1186,4.1231,4.1237,4.1207,4.1208,4.1274,4.128,4.1287,4.1333,4.1311,4.1314,4.1316,4.1425,4.1426,4.1427,0,0,0,0,0,0,4.1051,4.1061,4.1153,4.1114,4.1126,4.116,4.1182,4.1188,4.1204,4.1239,4.1245,4.1218,4.1273,4.1282,4.1321,4.1336,4.1316,4.1319,4.1424,4.1425,4.1426,4.1423,0,0,0,0,0,0,4.1047,4.106,4.1074,4.1114,4.1128,4.1186,4.1183,4.119,4.121,4.1211,4.125,4.1256,4.1274,4.1316,4.1324,4.134,4.1322,4.1422,4.1424,4.1426,4.1422,4.1424,4.1426,0,0,0,0,0,4.1043,4.1069,4.1074,4.1085,4.1145,4.1186,4.1194,4.1215,4.1211,4.1225,4.1248,4.1254,4.1332,4.1319,4.1329,4.1346,4.1422,4.1424,4.1426,4.1421,4.1424,4.1426,0,0,0,0,0,0,4.1029,4.1075,4.1081,4.1121,4.115,4.1189,4.1208,4.1217,4.1247,4.1246,4.127,4.1278,4.1316,4.1335,4.132,4.1383,4.1377,4.1381,4.137,4.1373,4.1375,4.137,4.1325,0,0,0,0,0,4.103,4.106,4.1098,4.113,4.1144,4.1173,4.1192,4.1206,4.1236,4.1248,4.1274,4.1303,4.1334,4.1354,4.1385,4.1424,4.1434,4.1441,4.1443,4.1444,4.1448,4.1473,4.1477,4.1433,4.1433,4.1433,0,0,4.1034,4.1063,4.108,4.1128,4.1152,4.1183,4.1184,4.1215,4.1239,4.1253,4.1292,4.1312,4.1346,4.1386,4.1405,4.1403,4.1462,4.1447,4.1448,4.1451,4.1476,4.148,4.1483,4.1434,4.1434,4.1434,0,0,4.1057,4.108,4.1111,4.1135,4.1172,4.1191,4.1199,4.1237,4.1252,4.1291,4.1303,4.1331,4.1383,4.1408,4.1428,4.1461,4.1469,4.147,4.1481,4.1505,4.1509,4.1512,4.1526,4.1531,4.1473,4.1473,4.1473,0,4.1056,4.1103,4.1125,4.1157,4.1179,4.1194,4.1225,4.1248,4.1292,4.1307,4.1303,4.1372,4.1395,4.1443,4.1451,4.1466,4.1476,4.1467,4.1506,4.151,4.1513,4.1527,4.1533,4.1474,4.1474,4.1474,4.1474,0,4.1102,4.1135,4.1154,4.1199,4.1222,4.1254,4.1281,4.1302,4.1314,4.1334,4.1375,4.1404,4.1442,4.1454,4.1464,4.1503,4.1501,4.1502,4.1496,4.1517,4.1531,4.1536,4.1474,4.1474,4.1474,4.1474,0,0,4.1118,4.1175,4.1182,4.1204,4.1246,4.1271,4.1304,4.1342,4.1361,4.1391,4.142,4.1465,4.1467,4.1489,4.1502,4.1523,4.1551,4.1522,4.1523,4.1528,4.1599,4.16,4.1606,4.1556,4.1557,4.1558,4.1597,0,4.1147,4.1207,4.1229,4.1278,4.1309,4.1325,4.1354,4.1383,4.1403,4.1432,4.1454,4.1486,4.1485,4.1499,4.152,4.1543,4.1566,4.1541,4.1585,4.1586,4.1578,4.1613,4.1614,4.1649,4.1602,4.1603,4.1604,0,4.119,4.1223,4.1276,4.1317,4.133,4.1356,4.1394,4.1422,4.1455,4.1469,4.1494,4.1507,4.1543,4.1533,4.1584,4.1566,4.1585,4.1599,4.1601,4.1608,4.1598,4.1623,4.166,4.1667,4.1612,4.1611,4.1611,0,4.1199,4.1256,4.1296,4.1313,4.1361,4.1379,4.14,4.1433,4.1456,4.1488,4.1504,4.1539,4.1559,4.1587,4.161,4.1601,4.1659,4.1651,4.1672,4.1672,4.1685,4.1684,4.1729,4.1693,4.1693,4.1693,4.1693,0,4.1231,4.1264,4.1301,4.1326,4.1363,4.1387,4.1424,4.1445,4.1475,4.1505,4.1519,4.1547,4.1574,4.1605,4.1623,4.1663,4.1671,4.1684,4.1688,4.1684,4.1683,4.1698,4.1698,4.1694,4.1694,4.1694,4.1693,0,4.1248,4.1274,4.132,4.1362,4.1373,4.1399,4.1436,4.1461,4.1481,4.1519,4.1529,4.1562,4.1599,4.1624,4.1672,4.1684,4.1729,4.1731,4.1718,4.1721,4.1741,4.174,4.18,4.181,4.1765,4.1765,4.1765,0,4.1268,4.1294,4.134,4.1361,4.1382,4.1416,4.144,4.1465,4.1489,4.1531,4.1551,4.159,4.1623,4.1682,4.171,4.1747,4.1753,4.1771,4.1758,4.1754,4.1757,4.1756,4.176,4.1774,4.1774,4.1774,4.1775,0,4.1301,4.1314,4.1347,4.1387,4.1415,4.1446,4.1478,4.1494,4.1525,4.1551,4.1591,4.1616,4.1666,4.1706,4.1746,4.1767,4.1777,4.1778,4.1786,4.1783,4.1775,4.1782,4.1726,4.1777,4.1777,4.1777,4.1777,4.1776,4.1322,4.1347,4.1384,4.1422,4.1448,4.1478,4.1505,4.153,4.1564,4.1607,4.1619,4.1662,4.1697,4.1752,4.1774,4.1807,4.1806,4.1815,4.1818,4.1821,4.1823,4.1768,4.1814,4.1814,4.1814,4.1814,4.1814,0,4.1358,4.1383,4.1418,4.1463,4.1493,4.15,4.1536,4.1561,4.1598,4.163,4.1663,4.171,4.1749,4.178,4.182,4.1841,4.1847,4.1851,4.1851,4.1857,4.1821,4.1812,4.1846,4.1846,4.1846,4.1846,4.1846,4.1846,4.1381,4.1424,4.1441,4.1499,4.1523,4.1566,4.1586,4.1614,4.1641,4.1693,4.1726,4.1746,4.1779,4.1822,4.1858,4.1867,4.1882,4.1886,4.1895,4.1862,4.1858,4.1855,4.1847,4.1888,4.1888,4.1929,4.1929,4.1929]}]]